Location: Foligno
(42.9600°N, 12.7050°E)
Time: 01:08:02
(UTC+02:00)

ISS - Pass Details

Date: 20 July 2018
Orbit: 402 x 408 km, 51.6° (Epoch: 18 July)

Event Time Altitude Azimuth Distance (km) Brightness Sun altitude
Rises 22:07:51 0° 229° (SW) 2,307 0.1 -13.2°
Reaches altitude 10° 22:09:55 10° 227° (SW) 1,452 -1.0 -13.5°
Maximum altitude 22:13:09 67° 144° (SE) 440 -4.0 -13.9°
Drops below altitude 10° 22:16:25 10° 61° (ENE) 1,464 -1.1 -14.3°
Sets 22:18:30 0° 59° (ENE) 2,328 -0.1 -14.6°
